Regional Weather Roundup
Issued by NWS New Orleans/Baton Rouge, LA

Home | Current Version | Previous Version | Graphics & Text | Print | Product List | Glossary On
Versions: 1 2 3 4 5 6 7 8 9 10 11 12 13 14 15 16 17 18 19 20 21 22 23 24 25 26 27 28 29 30 31 32 33 34 35 36 37 38 39 40 41 42 43 44 45 46 47 48 49 50
173
ASUS44 KLIX 271707
RWRLIX
NEW ORLEANS REGIONAL WEATHER ROUNDUP
NATIONAL WEATHER SERVICE NEW ORLEANS LA
1200 PM CDT FRI MAR 27 2015

NOTE: "FAIR" INDICATES FEW OR NO CLOUDS BELOW 12,000 FEET WITH NO
      SIGNIFICANT WEATHER AND/OR OBSTRUCTIONS TO VISIBILITY.
      SKY/WX - SKY CONDITION AND SIGNIFICANT WEATHER.
      TMP - AIR TEMPERATURE.     DP    - DEWPOINT TEMPERATURE.
      RH  - RELATIVE HUMIDITY.   PRES  - PRESSURE.
      HI  - HEAT INDEX.          WCI   - WIND CHILL INDEX.

*  THESE STATIONS ARE NOT NWS OR FAA STATIONS AND ARE NOT UNDER
   NWS QUALITY CONTROL.

LAZ038-040-048-061>063-065>067-069-271800-
SOUTHEAST LOUISIANA

CITY           SKY/WX    TMP DP  RH WIND       PRES   REMARKS
N.O. AUDUBON   NOT AVBL
N.O. INTL ARPT MOSUNNY   60  35  39 N14       30.08F
N.O. LAKEFRONT SUNNY     62  37  39 NW16      30.08F
SLIDELL        SUNNY     63  32  31 N14G21    30.06S
BATON ROUGE    SUNNY     63  34  33 VRB6      30.10F
BOOTHVILLE     SUNNY     61  49  64 NW14      30.07R
BELLE CHASSE   MOSUNNY   61  35  37 N12G18    30.07S
BOGALUSA*        N/A     62  31  31 N14       30.08F
GALLIANO*      SUNNY     64  40  42 MISG      30.09R
NEW ROADS*       N/A     59  38  45 NW9G16    30.12S
GONZALES*        N/A     62  32  32 N8G20     30.09S
HAMMOND*       SUNNY     64  28  25 N12G17    30.09F
HOUMA*         SUNNY     63  37  39 NW14      30.10R
PORT FOURCHON* SUNNY     61  43  51 N13G22    30.12R

$$

MSZ070-080>082-271800-
SOUTHERN MISSISSIPPI

CITY           SKY/WX    TMP DP  RH WIND       PRES   REMARKS
MCCOMB         SUNNY     60  33  36 N15       30.08F
GULFPORT       SUNNY     63  35  35 N16G22    30.03S
BILOXI         SUNNY     63  38  39 NW10      30.02S
PASCAGOULA     SUNNY     62  38  40 NW10G22   30.02S
STENNIS ARPT*  SUNNY     61  30  31 N12       30.06R

$$

COASTAL OBSERVATIONS
LAKE AND NEARSHORE STATIONS

STATION/POSITION TIME  TEMP    WIND        PRES    WAVE
                       AIR SEA DIR/SP/G            HT/PER
                 (UTC) (F)     (DEG/KT/KT) (MB)    (FT/S)
PASCAGOULA       1600   59     320/  9/ 15 1015.7
WAVELAND YACHT   1600   56 64  350/ 13/ 16 1017.2
GRAND ISLE       1600   59 67  340/ 14/ 21 1017.7
SOUTHWEST PASS   1600   60 52  340/ 16/ 18 1018.4
NEW CANAL        1606   56     350/  3/ 10 1018.9
SHELL BEACH      1600   55 68  320/ 14/ 20 1018.1

OFFSHORE STATIONS

STATION/POSITION TIME  TEMP    WIND        PRES    WAVE
                       AIR SEA DIR/SP/G            HT/PER
                 (UTC) (F)     (DEG/KT/KT) (MB)    (FT/S)
64 S DAUPHIN ISL 1650   58 71  340/ 21/ 25 1017.1    6/ 6

$$




USA.gov is the U.S. government's official web portal to all federal, state and local government web resources and services.